| time (UTC) | temp C | wind direction | speed KPH | gust KPH | rain 1hr cm | rain 24hr cm | rain mn cm | humidity % | barometer mb |
| 20260506204534 | 17 | 187 | 0.0 | 4.8 | 0.00 | 0.18 | 0.18 | 55 | 1013.5 |
| 20260506203040 | 17 | 0 | 1.6 | 4.8 | 0.00 | 0.18 | 0.18 | 55 | 1013.8 |
| 20260506201538 | 16 | 0 | 0.0 | 6.4 | 0.00 | 0.18 | 0.18 | 55 | 1014.1 |
| 20260506200037 | 16 | 0 | 0.0 | 4.8 | 0.00 | 0.18 | 0.18 | 56 | 1014.1 |
| 20260506194543 | 15 | 158 | 0.0 | 4.8 | 0.00 | 0.18 | 0.18 | 57 | 1014.4 |
| 20260506193034 | 15 | 109 | 0.0 | 1.6 | 0.00 | 0.18 | 0.18 | 57 | 1014.8 |
| 20260506191539 | 15 | 0 | 0.0 | 3.2 | 0.00 | 0.18 | 0.18 | 58 | 1014.6 |
| 20260506190039 | 15 | 113 | 0.0 | 4.8 | 0.00 | 0.18 | 0.18 | 57 | 1014.8 |
| 20260506184537 | 15 | 151 | 0.0 | 8.0 | 0.00 | 0.18 | 0.18 | 57 | 1014.8 |
| 20260506183034 | 15 | 121 | 1.6 | 4.8 | 0.00 | 0.18 | 0.18 | 57 | 1013.4 |
| 20260506181535 | 15 | 182 | 1.6 | 6.4 | 0.00 | 0.18 | 0.18 | 60 | 1013.5 |
| 20260506180043 | 14 | 0 | 1.6 | 8.0 | 0.00 | 0.18 | 0.18 | 60 | 1014.2 |
| 20260506174536 | 13 | 0 | 0.0 | 3.2 | 0.00 | 0.18 | 0.18 | 65 | 1014.0 |
| 20260506173041 | 12 | 141 | 0.0 | 11.3 | 0.00 | 0.18 | 0.18 | 66 | 1014.3 |
| 20260506171551 | 12 | 136 | 0.0 | 8.0 | 0.00 | 0.18 | 0.18 | 66 | 1013.9 |
| 20260506170039 | 12 | 0 | 0.0 | 9.7 | 0.00 | 0.18 | 0.18 | 68 | 1014.3 |
| 20260506164534 | 12 | 0 | 0.0 | 4.8 | 0.00 | 0.18 | 0.18 | 68 | 1014.6 |
| 20260506163041 | 12 | 0 | 0.0 | 3.2 | 0.00 | 0.18 | 0.18 | 68 | 1014.8 |
| 20260506161538 | 12 | 0 | 0.0 | 9.7 | 0.15 | 0.18 | 0.18 | 68 | 1014.8 |
| 20260506160039 | 12 | 169 | 0.0 | 6.4 | 0.18 | 0.18 | 0.18 | 70 | 1013.7 |
| 20260506154539 | 12 | 0 | 0.0 | 1.6 | 0.18 | 0.18 | 0.18 | 70 | 1014.5 |
| 20260506153034 | 11 | 0 | 0.0 | 6.4 | 0.15 | 0.15 | 0.15 | 69 | 1014.7 |
| 20260506151537 | 12 | 0 | 0.0 | 1.6 | 0.03 | 0.03 | 0.03 | 65 | 1015.9 |
| 20260506150039 | 12 | 0 | 0.0 | 0.0 | 0.00 | 0.00 | 0.00 | 64 | 1015.9 |
| 20260506144546 | 12 | 172 | 0.0 | 6.4 | 0.00 | 0.00 | 0.00 | 65 | 1015.4 |
| 20260506143038 | 12 | 0 | 1.6 | 6.4 | 0.00 | 0.00 | 0.00 | 63 | 1013.8 |
| 20260506141534 | 12 | 0 | 0.0 | 8.0 | 0.00 | 0.00 | 0.00 | 63 | 1015.2 |
| 20260506140037 | 12 | 108 | 1.6 | 6.4 | 0.00 | 0.00 | 0.00 | 63 | 1014.5 |
| 20260506134539 | 12 | 0 | 0.0 | 8.0 | 0.00 | 0.00 | 0.00 | 64 | 1013.9 |
| 20260506133045 | 11 | 134 | 0.0 | 6.4 | 0.00 | 0.00 | 0.00 | 63 | 1013.4 |
| 20260506131538 | 11 | 0 | 0.0 | 6.4 | 0.00 | 0.00 | 0.00 | 63 | 1013.7 |
| 20260506130037 | 11 | 92 | 0.0 | 8.0 | 0.00 | 0.00 | 0.00 | 64 | 1013.3 |
| 20260506124536 | 11 | 169 | 0.0 | 3.2 | 0.00 | 0.00 | 0.00 | 63 | 1013.2 |
| 20260506123034 | 12 | 149 | 1.6 | 9.7 | 0.00 | 0.00 | 0.00 | 62 | 1013.0 |
| 20260506121532 | 12 | 197 | 0.0 | 6.4 | 0.00 | 0.00 | 0.00 | 61 | 1012.8 |
| 20260506120039 | 12 | 68 | 1.6 | 6.4 | 0.00 | 0.00 | 0.00 | 59 | 1012.7 |
| 20260506114532 | 12 | 0 | 0.0 | 9.7 | 0.00 | 0.00 | 0.00 | 58 | 1012.7 |
| 20260506113035 | 13 | 165 | 1.6 | 6.4 | 0.00 | 0.00 | 0.00 | 57 | 1012.4 |
| 20260506111532 | 13 | 136 | 0.0 | 6.4 | 0.00 | 0.00 | 0.00 | 58 | 1011.9 |
| 20260506110036 | 13 | 134 | 1.6 | 11.3 | 0.00 | 0.00 | 0.00 | 57 | 1011.9 |
| 20260506104540 | 13 | 158 | 1.6 | 6.4 | 0.00 | 0.00 | 0.00 | 57 | 1011.7 |
| 20260506103041 | 13 | 0 | 0.0 | 8.0 | 0.00 | 0.00 | 0.00 | 56 | 1011.5 |
| 20260506101545 | 13 | 154 | 0.0 | 9.7 | 0.00 | 0.00 | 0.00 | 57 | 1011.1 |
| 20260506100034 | 13 | 171 | 1.6 | 6.4 | 0.00 | 0.00 | 0.00 | 57 | 1010.9 |
| 20260506094540 | 13 | 113 | 0.0 | 6.4 | 0.00 | 0.00 | 0.00 | 57 | 1010.8 |
| 20260506093033 | 13 | 154 | 1.6 | 4.8 | 0.00 | 0.00 | 0.00 | 57 | 1010.6 |
| 20260506091532 | 14 | 139 | 1.6 | 8.0 | 0.00 | 0.00 | 0.00 | 57 | 1010.5 |
| 20260506090033 | 14 | 115 | 1.6 | 6.4 | 0.00 | 0.00 | 0.00 | 57 | 1010.5 |
| 20260506084541 | 14 | 198 | 0.0 | 6.4 | 0.00 | 0.00 | 0.00 | 58 | 1010.3 |
| 20260506083037 | 15 | 0 | 0.0 | 6.4 | 0.00 | 0.00 | 0.00 | 58 | 1010.0 |
| 20260506081534 | 15 | 0 | 0.0 | 4.8 | 0.00 | 0.00 | 0.00 | 59 | 1010.0 |
| 20260506073037 | 15 | 127 | 0.0 | 4.8 | 0.00 | 0.00 | 0.00 | 58 | 1009.4 |
| 20260506071537 | 15 | 153 | 0.0 | 3.2 | 0.00 | 0.00 | 0.00 | 58 | 1009.7 |
| 20260506061538 | 15 | 162 | 0.0 | 3.2 | 0.00 | 0.00 | 0.00 | 59 | 1009.6 |
| 20260506044534 | 17 | 0 | 0.0 | 6.4 | 0.00 | 0.00 | 0.00 | 60 | 1009.6 |
| 20260506043038 | 17 | 176 | 0.0 | 6.4 | 0.00 | 0.00 | 0.00 | 59 | 1009.7 |
| 20260506041536 | 17 | 158 | 1.6 | 8.0 | 0.00 | 0.00 | 0.00 | 59 | 1009.7 |
| 20260506040039 | 17 | 0 | 1.6 | 6.4 | 0.00 | 0.00 | 0.00 | 58 | 1009.5 |
| 20260506034534 | 18 | 140 | 0.0 | 6.4 | 0.00 | 0.00 | 0.00 | 59 | 1008.9 |
| 20260506033035 | 18 | 119 | 0.0 | 8.0 | 0.00 | 0.00 | 0.00 | 57 | 1008.4 |
| 20260506031538 | 18 | 183 | 0.0 | 4.8 | 0.00 | 0.00 | 0.00 | 57 | 1008.5 |
| 20260506030035 | 19 | 175 | 1.6 | 8.0 | 0.00 | 0.00 | 0.00 | 56 | 1008.1 |
| 20260506024536 | 20 | 134 | 0.0 | 4.8 | 0.00 | 0.00 | 0.00 | 56 | 1007.9 |
| 20260506023046 | 20 | 148 | 0.0 | 3.2 | 0.00 | 0.00 | 0.00 | 56 | 1007.6 |
| 20260506021536 | 20 | 0 | 0.0 | 3.2 | 0.00 | 0.00 | 0.00 | 55 | 1007.1 |
| 20260506020034 | 20 | 0 | 0.0 | 3.2 | 0.00 | 0.00 | 0.00 | 54 | 1007.2 |
| 20260506014533 | 20 | 0 | 0.0 | 3.2 | 0.00 | 0.00 | 0.00 | 53 | 1006.4 |
| 20260506013037 | 21 | 0 | 0.0 | 8.0 | 0.00 | 0.00 | 0.00 | 53 | 1006.3 |
| 20260506011535 | 21 | 0 | 0.0 | 3.2 | 0.00 | 0.00 | 0.00 | 53 | 1006.2 |
| 20260506010047 | 21 | 161 | 0.0 | 11.3 | 0.00 | 0.00 | 0.00 | 52 | 1006.0 |
| 20260506004543 | 22 | 0 | 0.0 | 4.8 | 0.00 | 0.00 | 0.00 | 52 | 1005.5 |
| 20260506003038 | 22 | 109 | 1.6 | 6.4 | 0.00 | 0.00 | 0.00 | 51 | 1005.1 |
| 20260506001544 | 23 | 0 | 1.6 | 6.4 | 0.00 | 0.00 | 0.00 | 50 | 1004.9 |
| 20260506000034 | 24 | 138 | 1.6 | 6.4 | 0.00 | 0.00 | 0.00 | 49 | 1004.9 |
| 20260505234556 | 25 | 85 | 1.6 | 4.8 | 0.00 | 0.00 | 0.00 | 47 | 1004.7 |
| 20260505233039 | 26 | 118 | 0.0 | 8.0 | 0.00 | 0.00 | 0.00 | 46 | 1004.6 |
| 20260505231534 | 26 | 136 | 1.6 | 8.0 | 0.00 | 0.00 | 0.00 | 45 | 1004.5 |
| 20260505230034 | 27 | 122 | 0.0 | 6.4 | 0.00 | 0.00 | 0.00 | 44 | 1004.4 |
| 20260505224539 | 28 | 158 | 0.0 | 3.2 | 0.00 | 0.00 | 0.00 | 42 | 1003.9 |
| 20260505223040 | 29 | 0 | 0.0 | 4.8 | 0.00 | 0.00 | 0.00 | 39 | 1003.9 |
| 20260505221532 | 30 | 0 | 0.0 | 4.8 | 0.00 | 0.00 | 0.00 | 37 | 1003.6 |
| 20260505220036 | 31 | 0 | 0.0 | 4.8 | 0.00 | 0.00 | 0.00 | 35 | 1003.3 |
| 20260505214557 | 32 | 0 | 0.0 | 4.8 | 0.00 | 0.00 | 0.00 | 33 | 1003.6 |
| 20260505213036 | 34 | 126 | 0.0 | 3.2 | 0.00 | 0.00 | 0.00 | 33 | 1003.4 |
| 20260505211535 | 34 | 122 | 0.0 | 4.8 | 0.00 | 0.00 | 0.00 | 30 | 1003.4 |
| 20260505210034 | 33 | 316 | 0.0 | 4.8 | 0.00 | 0.00 | 0.00 | 34 | 1003.5 |